Location: Liscomb Game Sanctuary
(45.1633°N, 62.5575°W)
Time: 23:21:03

Meteor 1-11 Rocket - Pass Details

Date: 22 February 2018
Orbit: 832 x 915 km, 81.2° (Epoch: 17 March)

Event Time Altitude Azimuth Distance (km) Brightness Sun altitude
Rises 18:59:44 0° 157° (SSE) 3,381 6.6 -13.4°
Reaches altitude 10° 19:02:24 10° 146° (SSE) 2,460 5.8 -13.8°
Maximum altitude 19:07:07 29° 88° (E) 1,522 4.5 -14.7°
Drops below altitude 10° 19:11:55 10° 31° (NNE) 2,518 5.9 -15.5°
Sets 19:14:40 0° 21° (NNE) 3,475 6.7 -16.0°
